This demonstration page uses our WeatherBlox Daily Observations layout. Learn more.

41.55636, -103.73856

Hourly Observations for December 14, 2016

Temp ( °F °C ) Dew Point ( °F °C ) Humidity (%) Winds ( mph kmh ) Pressure ( in mb ) Visibility ( mi km ) Precip ( " mm )
12:53 am 00:53 Clear 8 -13.3 3 -16.1 80 80 W 6 9 30.33 1027 10 16.0934 0 0
1:53 am 01:53 Clear 8 -13.3 2 -16.7 76 76 W 5 7 30.36 1028 10 16.0934 0 0
2:53 am 02:53 Clear 9 -12.8 3 -16.1 77 77 W 7 11 30.36 1028 10 16.0934 0 0
3:53 am 03:53 Clear 10 -12.2 2 -16.7 69 69 W 7 11 30.36 1028 10 16.0934 0 0
4:53 am 04:53 Clear 10 -12.2 2 -16.7 69 69 WNW 9 15 30.39 1029 10 16.0934 0 0
5:53 am 05:53 Clear 11 -11.7 1 -17.2 64 64 NW 5 7 30.43 1030 10 16.0934 0 0
6:53 am 06:53 Clear 10 -12.2 2 -16.7 69 69 WNW 6 9 30.45 1031 10 16.0934 0 0
7:53 am 07:53 Sunny 12 -11.1 2 -16.7 64 64 W 8 13 30.45 1031 10 16.0934 0 0
8:53 am 08:53 Sunny 14 -10 2 -16.7 58 58 W 9 15 30.49 1033 10 16.0934 0 0
9:53 am 09:53 Sunny 16 -8.9 1 -17.2 51 51 WNW 8 13 30.5 1033 10 16.0934 0 0
10:53 am 10:53 Sunny 18 -7.8 -1 -18.3 43 43 NW 8 13 30.48 1032 10 16.0934 0 0
11:53 am 11:53 Sunny 19 -7.2 -1 -18.3 41 41 WSW 6 9 30.47 1032 10 16.0934 0 0
12:53 pm 12:53 Mostly Cloudy 19 -7.2 0 -17.8 43 43 NNW 5 7 30.44 1031 10 16.0934 0 0
1:53 pm 13:53 Cloudy 22 -5.6 1 -17.2 40 40 Calm 30.41 1030 10 16.0934 0 0
2:53 pm 14:53 Cloudy 22 -5.6 0 -17.8 38 38 Calm 30.4 1030 10 16.0934 0 0
3:53 pm 15:53 Cloudy 22 -5.6 -1 -18.3 36 36 NNE 5 7 30.4 1030 10 16.0934 0 0
4:53 pm 16:53 Cloudy 21 -6.1 0 -17.8 39 39 Calm 30.41 1030 10 16.0934 0 0
5:53 pm 17:53 Cloudy 20 -6.7 0 -17.8 41 41 E 3 6 30.4 1030 10 16.0934 0 0
6:53 pm 18:53 Cloudy 20 -6.7 1 -17.2 43 43 E 6 9 30.42 1030 10 16.0934 0 0
7:53 pm 19:53 Cloudy 20 -6.7 1 -17.2 43 43 SE 8 13 30.4 1030 10 16.0934 0 0
8:39 pm 20:39 Cloudy with Light Snow 18 -7.8 10 -12.2 71 71 SE 8 13 30.45 1031 1.25 2.011675 0 0.0254
8:53 pm 20:53 Mostly Cloudy with Scattered Snow Showers 18 -7.8 12 -11.1 77 77 SE 7 11 30.39 1029 1 1.60934 0.01 0.254
9:00 pm 21:00 Mostly Cloudy with Scattered Snow Showers 18 -8 12 -11 79 79 ESE 7 11 30.45 1031 0.75 1.207005 0 0
9:11 pm 21:11 Mostly Cloudy with Scattered Snow Showers 18 -7.8 13 -10.6 81 81 SE 9 15 30.45 1031 1 1.60934 0.01 0.254
9:53 pm 21:53 Cloudy with Light Snow 17 -8.3 13 -10.6 84 84 ESE 8 13 30.38 1029 1.25 2.011675 0.04 1.016
10:53 pm 22:53 Cloudy with Light Snow 17 -8.3 13 -10.6 84 84 ESE 9 15 30.35 1028 1.5 2.41401 0.03 0.762
11:28 pm 23:28 Cloudy with Light Snow 18 -8 14 -10 86 86 ESE 9 15 30.42 1030 2.5 4.02335 0 0
11:48 pm 23:48 Cloudy with Light Snow 18 -8 14 -10 86 86 ESE 10 17 30.42 1030 1.75 2.816345 0 0
11:53 pm 23:53 Cloudy with Light Snow 18 -7.8 14 -10 84 84 ESE 9 15 30.31 1027 1.5 2.41401 0.02 0.508

Powered by AerisWeather